N9GF Weather Reports


Display with metric or nautical units.
time (UTC)temp
F
wind
direction
speed
MPH
gust
MPH
rain 1hr
in
rain 24hr
in
rain mn
in
humidity
%
barometer
mb
20200531160012 62 74 0.0 0.0 0.00 0.00 0.00 52 1025.3
20200531154741 61 79 1.0 0.0 0.00 0.00 0.00 51 1025.4
20200531153141 60 47 1.0 0.0 0.00 0.00 0.00 52 1025.6
20200531151651 60 60 0.0 0.0 0.00 0.00 0.00 54 1025.6
20200531150151 58 56 2.0 0.0 0.00 0.00 0.00 53 1025.7
20200531144610 58 71 2.0 0.0 0.00 0.00 0.00 55 1025.8
20200531143159 58 61 1.0 0.0 0.00 0.00 0.00 55 1025.6
20200531141657 57 61 1.0 0.0 0.00 0.00 0.00 57 1025.5
20200531140141 57 60 2.0 0.0 0.00 0.00 0.00 56 1025.6
20200531134616 56 59 1.0 0.0 0.00 0.00 0.00 56 1025.5
20200531133144 56 71 1.0 0.0 0.00 0.00 0.00 58 1025.6
20200531131543 55 66 0.0 0.0 0.00 0.00 0.00 58 1025.4
20200531130104 54 65 1.0 0.0 0.00 0.00 0.00 57 1025.1
20200531124607 54 35 2.0 0.0 0.00 0.00 0.00 59 1024.8
20200531123056 53 63 1.0 0.0 0.00 0.00 0.00 63 1024.6
20200531121529 52 90 1.0 0.0 0.00 0.00 0.00 65 1025.2
20200531120044 51 67 1.0 0.0 0.00 0.00 0.00 68 1025.1
20200531114551 50 68 1.0 0.0 0.00 0.00 0.00 73 1025.0
20200531111539 49 68 0.0 0.0 0.00 0.00 0.00 79 1024.6
20200531110039 49 68 0.0 0.0 0.00 0.00 0.00 79 1024.6
20200531104512 49 68 0.0 0.0 0.00 0.00 0.00 80 1024.2
20200531103017 49 64 0.0 0.0 0.00 0.00 0.00 81 1024.0
20200531101511 49 64 0.0 0.0 0.00 0.00 0.00 81 1024.0
20200531100016 50 64 1.0 0.0 0.00 0.00 0.00 82 1023.8
20200531094505 50 71 0.0 0.0 0.00 0.00 0.00 82 1023.7
20200531093023 50 71 2.0 0.0 0.00 0.00 0.00 82 1023.4
20200531090206 50 61 1.0 0.0 0.00 0.00 0.00 84 1023.2
20200531084807 51 62 1.0 0.0 0.00 0.00 0.00 84 1023.0
20200531083217 51 68 1.0 0.0 0.00 0.00 0.00 84 1022.9
20200531080200 51 63 1.0 0.0 0.00 0.00 0.00 85 1022.7
20200531074618 51 63 0.0 0.0 0.00 0.00 0.00 84 1022.6
20200531073150 51 63 0.0 0.0 0.00 0.00 0.00 83 1022.4
20200531071706 51 64 0.0 0.0 0.00 0.00 0.00 81 1022.2
20200531070054 52 64 0.0 0.0 0.00 0.00 0.00 80 1022.0
20200531064620 52 64 0.0 0.0 0.00 0.00 0.00 78 1021.9
20200531063115 52 64 0.0 0.0 0.00 0.00 0.00 76 1022.0
20200531061611 52 64 0.0 0.0 0.00 0.00 0.00 75 1021.8
20200531060127 53 64 0.0 0.0 0.00 0.00 0.00 75 1021.6
20200531054608 53 64 0.0 0.0 0.00 0.00 0.00 74 1021.5
20200531053057 53 64 0.0 0.0 0.00 0.00 0.00 73 1021.4
20200531051608 53 64 0.0 0.0 0.00 0.00 0.00 72 1021.4
20200531050030 54 64 0.0 0.0 0.00 0.00 0.00 71 1021.3
20200531044607 54 64 0.0 0.0 0.00 0.00 0.00 71 1021.2
20200531043057 55 64 0.0 0.0 0.00 0.00 0.00 70 1021.2
20200531041615 55 64 0.0 0.0 0.00 0.00 0.00 70 1021.2
20200531040100 55 64 0.0 0.0 0.00 0.00 0.00 70 1021.0
20200531034747 55 64 0.0 0.0 0.00 0.00 0.00 70 1021.0
20200531033058 56 64 0.0 0.0 0.00 0.00 0.00 69 1021.0
20200531031540 56 64 1.0 0.0 0.00 0.00 0.00 68 1020.9
20200531030035 57 64 1.0 0.0 0.00 0.00 0.00 67 1020.8
20200531024526 57 64 1.0 0.0 0.00 0.00 0.00 65 1020.7
20200531023041 58 64 0.0 0.0 0.00 0.00 0.00 66 1020.5
20200531021520 59 68 1.0 0.0 0.00 0.00 0.00 66 1020.3
20200531020024 60 69 1.0 0.0 0.00 0.00 0.00 62 1020.0
20200531014601 61 65 1.0 0.0 0.00 0.00 0.00 62 1019.8
20200531013018 62 66 0.0 0.0 0.00 0.00 0.00 62 1019.4
20200531011539 62 66 0.0 0.0 0.00 0.00 0.00 62 1019.3
20200531010042 63 66 0.0 0.0 0.00 0.00 0.00 61 1019.2
20200531004517 64 66 0.0 0.0 0.00 0.00 0.00 60 1019.0
20200531003013 65 65 0.0 0.0 0.00 0.00 0.00 60 1018.8
20200531001520 65 65 0.0 0.0 0.00 0.00 0.00 58 1018.8
20200531000009 66 65 1.0 0.0 0.00 0.00 0.00 58 1018.6
20200530234513 66 65 1.0 0.0 0.00 0.00 0.00 58 1018.4
20200530233014 66 65 0.0 0.0 0.00 0.00 0.00 58 1018.2
20200530231509 66 65 0.0 0.0 0.00 0.00 0.00 60 1018.2
20200530230019 67 65 0.0 0.0 0.00 0.00 0.00 57 1018.1
20200530224508 67 64 1.0 0.0 0.00 0.00 0.00 56 1018.1
20200530223008 68 66 1.0 0.0 0.00 0.00 0.00 53 1018.0
20200530221508 69 348 0.0 0.0 0.00 0.00 0.00 42 1018.2
20200530220006 69 306 0.0 0.0 0.00 0.00 0.00 44 1018.3
20200530214521 69 342 0.0 0.0 0.00 0.00 0.00 45 1018.2
20200530213006 70 319 0.0 0.0 0.00 0.00 0.00 41 1018.3
20200530211511 71 279 2.0 0.0 0.00 0.00 0.00 43 1018.2
20200530210005 72 42 2.0 0.0 0.00 0.00 0.00 39 1018.1
20200530204519 72 281 2.0 0.0 0.00 0.00 0.00 42 1018.2
20200530203001 72 17 2.0 0.0 0.00 0.00 0.00 43 1018.2
20200530201501 73 17 1.0 0.0 0.00 0.00 0.00 41 1018.2
20200530200219 72 40 2.0 0.0 0.00 0.00 0.00 44 1018.3
20200530194725 72 333 1.0 0.0 0.00 0.00 0.00 48 1018.3
20200530193138 71 13 2.0 0.0 0.00 0.00 0.00 46 1018.3
20200530191759 71 302 1.0 0.0 0.00 0.00 0.00 47 1018.4
20200530190127 72 346 1.0 0.0 0.00 0.00 0.00 45 1018.4
20200530184657 71 306 2.0 0.0 0.00 0.00 0.00 46 1018.5
20200530183118 71 13 1.0 0.0 0.00 0.00 0.00 45 1018.6
20200530181714 72 297 2.0 0.0 0.00 0.00 0.00 43 1018.5
20200530180219 70 62 1.0 0.0 0.00 0.00 0.00 50 1018.6
20200530174649 71 305 2.0 0.0 0.00 0.00 0.00 47 1018.6
20200530173126 70 313 1.0 0.0 0.00 0.00 0.00 49 1018.6
20200530171628 69 5 2.0 0.0 0.00 0.00 0.00 51 1018.6
20200530170125 68 299 1.0 0.0 0.00 0.00 0.00 55 1018.6
20200530164556 69 338 1.0 0.0 0.00 0.00 0.00 54 1018.6
20200530163146 68 309 1.0 0.0 0.00 0.00 0.00 55 1018.6
20200530161757 68 348 1.0 0.0 0.00 0.00 0.00 55 1018.9